Regional Weather Roundup
Issued by NWS Grand Forks, ND

Home | Current Version | Previous Version | Graphics & Text | Print | Product List | Glossary On
Versions: 1 2 3 4 5 6 7 8 9 10 11 12 13 14 15 16 17 18 19 20 21 22 23 24 25 26 27 28 29 30 31 32 33 34 35 36 37 38 39 40 41 42 43 44 45 46 47 48 49 50
000
ASUS43 KFGF 011931
RWRFGF
PRAIRIE TO PINES  WEATHER ROUNDUP
NATIONAL WEATHER SERVICE EASTERN NORTH DAKOTA/GRAND FORKS ND
200 PM CDT WED APR 01 2015

 **SATELLITE DATA USED TO AUGMENT SKY COVER AT AUTOMATED STATIONS**
 *****  WEATHER ACROSS EASTERN NORTH DAKOTA  *****

CITY           SKY/WX    TMP DP  RH WIND       PRES   REMARKS
GRAND FORKS    PTSUNNY   65  37  35 W13       29.32F
GRAND FRKS AFB PTSUNNY   65  37  35 W14       29.33S
GRAND FRKS NWS   N/A     66 N/A N/A W23         N/A
DEVILS LAKE    CLOUDY    54  41  62 W22G33    29.42R
FARGO          CLOUDY    72  35  25 SW20G30   29.35R
WAHPETON ARPT  CLOUDY    68  34  28 SW14      29.38F
$$

 ***** WEATHER ACROSS CENTRAL AND WESTERN NORTH DAKOTA  *****

CITY           SKY/WX    TMP DP  RH WIND       PRES   REMARKS
BISMARCK       CLOUDY    59  31  34 NW23G35   29.57R
MINOT          PTSUNNY   58  36  43 W28G37    29.50R
JAMESTOWN      PTSUNNY   62  39  42 W31G46    29.43R
MINOT AFB      PTSUNNY   55  42  61 NW29G36   29.50R
GARRISON         N/A     58  32  37 W24G37    29.54R
WILLISTON      MOSUNNY   53  29  39 W29G36    29.63S
DICKINSON      MOSUNNY   54  26  34 W32G45    29.62R
HETTINGER      MOSUNNY   58  20  22 W37G46    29.66S
$$

 *****  OTHER AIRPORT OBSERVATIONS IN OUR AREA  *****

CITY           SKY/WX    TMP DP  RH WIND       PRES   REMARKS
WALHALLA         N/A     57  41  54 W13       29.34F
GRAFTON AIRPOR NOT AVBL
VALLEY CITY AR FAIR      61  39  44 NW35G43   29.41R
CANDO          FAIR      54  41  62 W22G28    29.43R
CAVALIER APRT  FAIR      57  39  51 NW15      29.32F
GWINNER        CLEAR     66  39  37 W25G33      N/A
ROLLA          CLOUDY    54  45  71 NW17G28   29.42S
 ***** THE ABOVE OBSERVATIONS ARE NON NWS ARE NOT QUALITY
       CONTROLLED AND MAY MIS-REPORT RAIN FOR SNOW...
$$

  *****  WEATHER ACROSS NORTHERN MINNESOTA  *****

CITY           SKY/WX    TMP DP  RH WIND       PRES   REMARKS
FLAG ISLAND    MOSUNNY   52  32  46 SE7       29.38F
WARROAD        PTSUNNY   59  43  55 SE13      29.37F
ROSEAU         PTSUNNY   63  39  42 SE12      29.35F
HALLOCK        PTSUNNY   64  39  39 SW12      29.33R
THF RVR FALLS  CLOUDY    66  41  39 S15       29.33F
BAUDETTE       PTSUNNY   61  37  41 S16       29.39F
WASKISH        CLOUDY    61  37  41 SE10      29.41S
CROOKSTON      PTSUNNY   70  37  30 SW21G26   29.34R
STEPHEN NDAWN    N/A     64  39  39 S13         N/A
GREENBUSH NDAW   N/A     63  45  51 S12         N/A
$$
  *****  WEATHER ACROSS CENTRAL AND WEST MINNESOTA  *****

CITY           SKY/WX    TMP DP  RH WIND       PRES   REMARKS
FOSSTON        CLOUDY    64  37  36 S23       29.34F
BEMIDJI        CLOUDY    63  38  39 S13G21    29.39F
PARK RAPIDS    CLOUDY    71  40  32 S25G33    29.40F
ELBOW LAKE     FAIR      65  45  48 S12       29.42F
WADENA         CLOUDY    66  43  42 S15       29.42F
DETROIT LAKES  CLOUDY    68  37  32 SW17G25   29.39S
MOORHEAD       CLOUDY    70  27  19 W22       29.36R
FERGUS FALLS   CLOUDY    70  34  26 SW20G25   29.41S
MORRIS MN      CLOUDY    73  45  35 SW22G28   29.43S
STAPLES        CLOUDY    66  36  32 S18G25    29.42F
$$
  *****  WEATHER ELSEWHERE ACROSS MINNESOTA  *****

CITY           SKY/WX    TMP DP  RH WIND       PRES   REMARKS
DULUTH         CLOUDY    44  32  62 SE10      29.61F
INTRNTL FALLS  PTSUNNY   61  34  36 S9G24     29.45F
ELY            PTSUNNY   52  30  43 SE18G24   29.56F
CLOQUET        CLOUDY    45  32  61 E12       29.58F THUNDER
WHEATON        CLOUDY    64  39  39 N5        29.42F
BRAINERD       CLOUDY    67  37  33 S15       29.48F
HIBBING        NOT AVBL
ALEXANDRIA     CLOUDY    69  42  37 SW16      29.47S
SAINT CLOUD    CLOUDY    72  34  24 S24G36    29.47F
MINNEAPOLIS    PTSUNNY   78  34  20 S33G43    29.57F
$$

  *****  WEATHER ACROSS SOUTH DAKOTA  *****

CITY           SKY/WX    TMP DP  RH WIND       PRES   REMARKS
SIOUX FALLS    PTSUNNY   81  43  26 S28G39    29.52F
BROOKINGS      PTSUNNY   77  45  31 SW29G37   29.49S
WATERTOWN      CLOUDY    70  42  36 SW18G28   29.47F
HURON          CLOUDY    67  32  27 NW21      29.50R
SISSETON         N/A     74  40  29 W25G44    29.35S
ABERDEEN       LGT RAIN  70  39  32 NW25G33   29.46R
MITCHELL       CLOUDY    74  30  19 W20G31    29.52R
PIERRE         PTSUNNY   67  39  35 NW24G37   29.59R
MOBRIDGE       PTSUNNY   65  35  33 NW30G38   29.54R
RAPID CITY     MOSUNNY   58  31  35 N33G45    29.71R
$$

  *****  SOME WEATHER IN NEARBY STATES *****

CITY           SKY/WX    TMP DP  RH WIND       PRES   REMARKS
GLASGOW MT     PTSUNNY   53  24  32 W28G37    29.71S
GREAT FALLS MT PTSUNNY   48   8  19 W24G38    29.82F
CHEYENNE WY    CLOUDY    58  26  29 N13       29.79F
SCOTTSBLUFF NE LGT RAIN  73  27  18 W22G35    29.69F
OMAHA NE       PTSUNNY   82  48  30 S21G39    29.66F
DES MOINES IA  PTSUNNY   80  35  19 S26G38    29.77F
DAVENPORT IA   SUNNY     78  33  19 S23G32    29.88F
CHICAGO IL     MOSUNNY   69  34  27 S13       29.96F
EAU CLAIRE WI  PTSUNNY   72  34  24 S24G32    29.68F
LA CROSSE WI   SUNNY     76  35  22 S23G29    29.73F
$$

  *****  SOME NATIONAL WEATHER *****

CITY           SKY/WX    TMP DP  RH WIND       PRES   REMARKS
LA GUARDIA NY  PTSUNNY   46  20  35 NW9       30.08S
RALEIGH NC     MOSUNNY   64  30  27 NE9       30.12F
ATLANTA GA     PTSUNNY   77  48  35 VRB3      30.05F
NEW ORLEANS LA PTSUNNY   79  61  53 S12       30.06F
OKLAHOMA CITY  MOSUNNY   79  59  50 S17G25    29.80F
ALBUQUERQUE NM MOSUNNY   72  25  17 W22G30    29.96F
SALT LAKE CITY MOSUNNY   47  21  35 NW14      30.11F
LOS ANGELES CA MOSUNNY   67  55  65 W15       30.01S
BOISE ID       SUNNY     47  26  44 NW12G18   30.19F
SEATTLE WA     PTSUNNY   50  38  63 SW8       30.29F
$$

*** WEATHER ACROSS MANITOBA...SASKATCHEWAN AND ONTARIO ***
                ***ONTARIO***

CITY           SKY/WX    TMP DP  RH WIND       PRES   REMARKS
GERALDTON      CLOUDY    39  25  56 S14G23    29.88F
THUNDER BAY    CLOUDY    32  30  93 E18       29.80F WCI  20
SIOUX LOOKOUT  PTSUNNY   45  28  53 SE13G21   29.55F
TORONTO        MOSUNNY   41   9  26 SE7       30.17S
BIG TROUT LK   SUNNY     43  27  52 SE6       29.72F
PICKLE LAKE    CLOUDY    41  27  56 SE20      29.69F
DRYDEN         MOSUNNY   48  30  49 SE22      29.50F
KENORA         PTSUNNY   52  32  46 S16G23    29.43F
$$
                *** MANITOBA***

CITY           SKY/WX    TMP DP  RH WIND       PRES   REMARKS
BRANDON        PTSUNNY   55  45  67 NW26G32   29.38F
DAUPHIN        PTSUNNY   50  43  76 W13       29.36F
ISLAND LAKE    LGT RAIN  34  34 100 NE15G22   29.58F WCI  24
PILOT MOUND      N/A     52  39  62 W14G21      N/A
THE PAS        LGT RAIN  37  32  81 SE15      29.43R
THOMPSON       LGT SNOW  25  16  68 NE18      29.67F WCI  11
WINNIPEG       PTSUNNY   59  39  47 S17G24    29.33S
LYNN LAKE      FLURRIES  14  10  85 NE15G23   29.70S WCI  -1
CHURCHILL      CRYSTALS   1  -2  85 N15       30.02F WCI -18
GILLAM         CLOUDY    16   9  73 NE13      29.81F WCI   2
$$
                ***SASKATCHEWAN***

CITY           SKY/WX    TMP DP  RH WIND       PRES   REMARKS
ESTEVAN        CLOUDY    48  34  57 W28G39    29.56R
KINDERSLEY     LGT RAIN  43  25  49 W33G45    29.52F
LLOYDMINSTER   LGT RAIN  36  32  87 W12       29.37F
PRINCE ALBERT  LGT RAIN  39  37  93 NW5       29.41S
REGINA         PTSUNNY   48  32  53 W32G40    29.54S
YORKTON        CLOUDY    43  37  81 W16G22    29.45R
N. BATTLEFORD  CLOUDY    41  34  75 W18G26    29.43F
LA RONGE       LGT SNOW  32  32 100 NE12G21   29.45R WCI  23
SASKATOON      PTSUNNY   43  30  61 W17G25    29.48F
SWIFT CURRENT  PTSUNNY   39  30  70 W15G31    29.60R
$$
NOTE: THESE ARE AUTOMATED STATIONS WITH LIMITED QUALITY CONTROL
      "FAIR" INDICATES FEW OR NO CLOUDS BELOW 12,000 FEET WITH NO
      SIGNIFICANT WEATHER AND/OR OBSTRUCTIONS TO VISIBILITY.
      SKY/WX - SKY CONDITION AND SIGNIFICANT WEATHER.
      TMP - AIR TEMPERATURE.    DP   - DEWPOINT TEMPERATURE.
      RH  - RELATIVE HUMIDITY.  PRES - PRESSURE.
      HX  - HEAT INDEX.         WCI  - WIND CHILL INDEX.
$



USA.gov is the U.S. government's official web portal to all federal, state and local government web resources and services.